Regional Weather Roundup
Issued by NWS San Diego, CA

Home | Current Version | Previous Version | Text Only | Print | Product List | Glossary On
Versions: 1 2 3 4 5 6 7 8 9 10 11 12 13 14 15 16 17 18 19 20 21 22 23 24 25 26 27 28 29 30 31 32 33 34 35 36 37 38 39 40 41 42 43 44 45 46 47 48 49 50
000
ASUS46 KSGX 031111
RWRSGX

SAN DIEGO HOURLY WEATHER ROUNDUP
NATIONAL WEATHER SERVICE SAN DIEGO CA
400 AM PDT SUN MAY 03 2015

NOTE: "FAIR" INDICATES FEW OR NO CLOUDS BELOW 12,000 FEET WITH NO
SIGNIFICANT WEATHER AND/OR OBSTRUCTIONS TO VISIBILITY.

CAZ042-043-060-061-PZZ750-775-031200-

GREATER SAN DIEGO AREA

CITY           SKY/WX    TMP DP  RH WIND       PRES   REMARKS
LINDBERGH FLD  CLOUDY    64  53  67 SW3       29.89F
POINT LOMA       N/A     61  55  79 NE1         N/A
NATIONAL CITY    N/A     64  58  81 CALM      29.88F
CHULA VISTA      N/A     61  57  87 CALM      29.81F
IMPERIAL BEACH CLOUDY    64  57  78 CALM      29.88F
BROWN FIELD    CLOUDY    60  56  86 CALM      29.87F
MIRAMAR MCAS   CLOUDY    64  53  67 CALM      29.87F
MONTGOMERY FLD CLOUDY    62  54  74 CALM      29.88F

$$

NORTH SAN DIEGO COUNTY

CITY           SKY/WX    TMP DP  RH WIND       PRES   REMARKS
CAMP PENDLETON CLOUDY    62  55  77 CALM      29.88F HAZE
OCEANSIDE AP   CLOUDY    62  55  77 CALM      29.87F
OCEANSIDE HBR    N/A     61  57  86 CALM      29.90F
VISTA            N/A     62  56  81 CALM      29.86F
CARLSBAD       CLOUDY    62  56  80 CALM      29.87F
DEL MAR          N/A     61  56  82 CALM      29.90F
LA JOLLA SCRIP   N/A    N/A N/A N/A CALM      29.85F
FALLBROOK        N/A     60  59  95 CALM      29.88S
ESCONDIDO        N/A     62  56  82 CALM      29.88F
SAN MARCOS       N/A     61  55  82 CALM      29.86F
POWAY            N/A     61  55  81 CALM      29.89S

$$

EAST SAN DIEGO COUNTY

CITY           SKY/WX    TMP DP  RH WIND       PRES   REMARKS
RAMONA         CLOUDY    58  52  80 CALM      29.88F
SANTEE LAKES     N/A     61  57  85 CALM      29.88F
LA MESA          N/A     61  56  85 CALM      29.82F
JAMUL            N/A     55  53  93 CALM      29.86F
DESCANSO N       N/A     46  42  84 CALM      29.71F
MT. LAGUNA OBS   N/A     53  25  34 N5        29.59F
CAMPO            N/A     45  44  97 NE5       29.86F

$$

ORANGE COUNTY AND THE LOS ANGELES BASIN

CITY           SKY/WX    TMP DP  RH WIND       PRES   REMARKS
JOHN WAYNE AP  MOCLDY    60  54  80 SE3       29.88S
LAKE FOREST FR   N/A     57  50  78 SE2       29.76F
SANTA ANA        N/A     63  56  78 CALM      29.83F
HUNTINGTON BCH   N/A     60  56  89 E3        29.90S
LOS ALAMITOS   MOCLDY    62  56  82 SE6       29.88S
FULLERTON      CLOUDY    61  32  33 CALM      29.87F
LONG BEACH     CLOUDY    61  52  72 NE5       29.88S
L.A. AP        CLOUDY    58  53  84 N3        29.89S
L.A. DOWNTOWN  CLOUDY    59  53  80 CALM      29.88F

$$

THE INLAND EMPIRE

CITY           SKY/WX    TMP DP  RH WIND       PRES   REMARKS
CORONA         CLEAR     48  48 100 CALM      29.89S FOG
CHINO          CLEAR     57  52  83 CALM      29.90S
ONTARIO        CLEAR     56  52  86 W5        29.88F
RIVERSIDE AP   CLEAR     57  53  86 CALM      29.89S
RIV CYN CREST    N/A     57  57 100 CALM        N/A
MORENO VALLEY    N/A     55  54  97 CALM      29.86R
MARCH ARB      PTCLDY    54  54 100 S5        29.89S
HORSETHIEF CYN   N/A     53  43  70 S3        29.83R
PERRIS           N/A     54  53  97 S3          N/A
MENIFEE          N/A     56  55  94 SW1       29.95S
HEMET EAST       N/A     54  49  85 CALM      29.84F
FRENCH VALLEY  CLOUDY    57  52  82 S5        29.89
TEMECULA         N/A     59  56  89 SW2       29.86F

$$

SAN BERNARDINO AND RIVERSIDE COUNTY MOUNTAINS

CITY           SKY/WX    TMP DP  RH WIND       PRES   REMARKS
BIG BEAR AP    CLEAR     34  25  69 CALM      30.05S
ANGELUS OAKS     N/A     48  25  40 CALM      29.73F
PINE COVE        N/A     52  26  36 N6        29.79F

$$

SOUTHERN DESERT INCLUDING THE COACHELLA VALLEY

CITY           SKY/WX    TMP DP  RH WIND       PRES   REMARKS
PALM SPRINGS   CLEAR     72  38  29 CALM      29.75S
THOUSAND PALMS   N/A     76  38  25 NW16      29.71R
THERMAL        CLEAR     75  37  25 NW9       29.70S
BLYTHE         CLEAR     71  45  39 CALM      29.74S
IMPERIAL AP    CLEAR     67  49  52 SW7       29.70F
EL CENTRO NAS  CLEAR     71  44  37 W6        29.72F
YUMA AZ        CLEAR     74  57  55 S10       29.73F

$$

UPPER DESERT

CITY           SKY/WX    TMP DP  RH WIND       PRES   REMARKS
VICTORVILLE AP CLEAR     57  32  38 S7        29.88F
HESPERIA         N/A     55  38  52 W7        29.90S
APPLE VALLEY     N/A     51  35  54 CALM      29.97S
PALMDALE       CLEAR     62  30  29 SW9       29.86F
LANCASTER      CLEAR     56  30  37 W9        29.86S
EDWARDS AFB    CLEAR     59  29  31 SW9       29.83S
DAGGETT        CLEAR     66  28  24 W14       29.82F
29 PALMS N     CLEAR     69  29  22 W8        29.89S
NEEDLES        CLEAR     77  35  21 CALM      29.76R

$$

REGIONAL REPORTS

CITY           SKY/WX    TMP DP  RH WIND       PRES   REMARKS
SANTA BARBARA  CLEAR     54  51  90 E9        29.87R
SANDBERG       CLEAR     59  26  28 W5        29.95F
MT. WILSON       N/A     54  28  37 W12         N/A
LAS VEGAS NV   CLEAR     73  29  19 S12       29.75S
PHOENIX AZ     MOCLDY    79  40  24 CALM      29.83R
TIJUANA          N/A    N/A N/A N/A MISG        N/A
ENSENADA NW      N/A     62  32  32 W3        29.85S

$$

OFFSHORE ISLANDS

CITY           SKY/WX    TMP DP  RH WIND       PRES   REMARKS
CATALINA ARPT  CLOUDY    52  52 100 SW10      29.89F FOG
SAN NICOLAS IS CLOUDY   N/A N/A N/A W10       29.88F

$$

MARINE AND OFFSHORE BUOY REPORTS

STATION/POSITION SKY/WX   TEMP    WIND        PRES    SWELL
                          AIR SEA DIR/SP/G            HT/PER/DIR
                          (F)     (DEG/KT/KT) (MB)    (FT/S/D)
TANNER BANKS               59 60  300/ 12/ 14 1012.2F   5/300/11
S CLEMENTE BASIN           61 65  300/ 12/ 14 1011.4F   5/220/21
SAN NICOLAS IS.               59                N/A     5/180/25
SO. S. ROSA ISLA           57 61  290/ 12/ 14 1011.5R   5/ 9
W. S. BARBARA CH           55 56  310/ 12/ 16 1011.0R   5/310/10
S. MONICA BASIN            57 63  330/  6/  8 1012.2R   3/270/ 6
S PEDRO CHANNEL               61                N/A     2/190/12
DANA POINT                    60                N/A     3/190/17
OCEANSIDE OFFSHR              62                N/A     3/190/17
TORREY PINES OTR              66                N/A     3/200/17
LA JOLLA 1                 63 66  200/  2/  3 1011.7F
MISSION BAY BUOY              65                N/A     3/200/17
SAN DIEGO BAY                 68              1012.3F
POINT LOMA SOUTH              66                N/A     5/180/17

$$




USA.gov is the U.S. government's official web portal to all federal, state and local government web resources and services.